| time (UTC) | temp F | wind direction | speed MPH | gust MPH | rain 1hr in | rain 24hr in | rain mn in | humidity % | barometer mb |
| 20260906105007 | 73 | 115 | 2.0 | 5.0 | 0.00 | 0.00 | 0.00 | 89 | 1014.8 |
| 20260906104535 | 73 | 87 | 2.0 | 5.0 | 0.00 | 0.00 | 0.00 | 90 | 1010.4 |
| 20260906104521 | 73 | 110 | 3.0 | 5.0 | 0.00 | 0.00 | 0.00 | 89 | 1014.8 |
| 20260906104006 | 73 | 104 | 2.0 | 5.0 | 0.00 | 0.00 | 0.00 | 89 | 1014.8 |
| 20260906103508 | 73 | 120 | 2.0 | 6.0 | 0.00 | 0.00 | 0.00 | 89 | 1014.9 |
| 20260906103035 | 73 | 106 | 1.0 | 6.0 | 0.00 | 0.00 | 0.00 | 89 | 1010.4 |
| 20260906103023 | 73 | 87 | 2.0 | 7.0 | 0.00 | 0.00 | 0.00 | 89 | 1014.8 |
| 20260906102512 | 73 | 63 | 2.0 | 7.0 | 0.00 | 0.00 | 0.00 | 88 | 1014.8 |
| 20260906102015 | 73 | 99 | 2.0 | 5.0 | 0.00 | 0.00 | 0.00 | 88 | 1014.8 |
| 20260906101533 | 73 | 91 | 1.0 | 3.0 | 0.00 | 0.00 | 0.00 | 89 | 1010.4 |
| 20260906101531 | 73 | 85 | 1.0 | 3.0 | 0.00 | 0.00 | 0.00 | 88 | 1014.8 |
| 20260906101002 | 73 | 113 | 2.0 | 3.0 | 0.00 | 0.00 | 0.00 | 88 | 1014.9 |
| 20260906100506 | 73 | 114 | 1.0 | 4.0 | 0.00 | 0.00 | 0.00 | 88 | 1015.0 |
| 20260906100033 | 73 | 129 | 2.0 | 4.0 | 0.00 | 0.00 | 0.00 | 89 | 1010.4 |
| 20260906100012 | 73 | 155 | 2.0 | 4.0 | 0.00 | 0.00 | 0.00 | 88 | 1015.1 |
| 20260906095503 | 73 | 117 | 2.0 | 4.0 | 0.00 | 0.00 | 0.00 | 88 | 1015.1 |
| 20260906095003 | 73 | 105 | 0.0 | 4.0 | 0.00 | 0.00 | 0.00 | 88 | 1015.0 |
| 20260906094532 | 73 | 98 | 2.0 | 4.0 | 0.00 | 0.00 | 0.00 | 88 | 1010.5 |
| 20260906094514 | 73 | 101 | 2.0 | 4.0 | 0.00 | 0.00 | 0.00 | 88 | 1014.9 |
| 20260906094010 | 73 | 123 | 2.0 | 6.0 | 0.00 | 0.00 | 0.00 | 88 | 1015.0 |
| 20260906093508 | 73 | 154 | 3.0 | 6.0 | 0.00 | 0.00 | 0.00 | 88 | 1014.9 |
| 20260906093033 | 73 | 157 | 2.0 | 5.0 | 0.00 | 0.00 | 0.00 | 88 | 1010.5 |
| 20260906093023 | 73 | 130 | 2.0 | 5.0 | 0.00 | 0.00 | 0.00 | 88 | 1014.9 |
| 20260906092508 | 73 | 154 | 3.0 | 5.0 | 0.00 | 0.00 | 0.00 | 88 | 1015.0 |
| 20260906092015 | 73 | 136 | 1.0 | 4.0 | 0.00 | 0.00 | 0.00 | 88 | 1015.0 |
| 20260906091533 | 73 | 115 | 1.0 | 5.0 | 0.00 | 0.00 | 0.00 | 88 | 1010.6 |
| 20260906091526 | 73 | 131 | 2.0 | 5.0 | 0.00 | 0.00 | 0.00 | 88 | 1015.1 |
| 20260906091012 | 73 | 139 | 3.0 | 5.0 | 0.00 | 0.00 | 0.00 | 87 | 1015.0 |
| 20260906090513 | 73 | 160 | 2.0 | 5.0 | 0.00 | 0.00 | 0.00 | 87 | 1015.0 |
| 20260906090030 | 73 | 139 | 1.0 | 5.0 | 0.00 | 0.00 | 0.00 | 87 | 1014.9 |
| 20260906090027 | 73 | 153 | 1.0 | 5.0 | 0.00 | 0.00 | 0.00 | 87 | 1010.4 |
| 20260906085503 | 73 | 127 | 1.0 | 4.0 | 0.00 | 0.00 | 0.00 | 87 | 1014.8 |
| 20260906085003 | 73 | 146 | 2.0 | 4.0 | 0.00 | 0.00 | 0.00 | 86 | 1014.8 |
| 20260906084526 | 73 | 146 | 1.0 | 3.0 | 0.00 | 0.00 | 0.00 | 86 | 1010.3 |
| 20260906084509 | 73 | 108 | 1.0 | 4.0 | 0.00 | 0.00 | 0.00 | 86 | 1014.7 |
| 20260906084006 | 73 | 119 | 2.0 | 5.0 | 0.00 | 0.00 | 0.00 | 86 | 1014.7 |
| 20260906083508 | 73 | 136 | 2.0 | 5.0 | 0.00 | 0.00 | 0.00 | 85 | 1014.8 |
| 20260906083032 | 73 | 139 | 1.0 | 4.0 | 0.00 | 0.00 | 0.00 | 85 | 1010.5 |
| 20260906083015 | 73 | 140 | 2.0 | 4.0 | 0.00 | 0.00 | 0.00 | 85 | 1014.7 |
| 20260906082508 | 74 | 118 | 1.0 | 3.0 | 0.00 | 0.00 | 0.00 | 84 | 1014.7 |
| 20260906082008 | 74 | 123 | 1.0 | 3.0 | 0.00 | 0.00 | 0.00 | 84 | 1014.6 |
| 20260906081521 | 74 | 107 | 1.0 | 4.0 | 0.00 | 0.00 | 0.00 | 84 | 1014.6 |
| 20260906081011 | 74 | 77 | 1.0 | 4.0 | 0.00 | 0.00 | 0.00 | 84 | 1014.6 |
| 20260906080512 | 74 | 116 | 1.0 | 4.0 | 0.00 | 0.00 | 0.00 | 83 | 1014.4 |
| 20260906080030 | 74 | 122 | 0.0 | 7.0 | 0.00 | 0.00 | 0.00 | 83 | 1014.6 |
| 20260906080027 | 74 | 122 | 0.0 | 7.0 | 0.00 | 0.00 | 0.00 | 84 | 1010.1 |
| 20260906075511 | 74 | 115 | 2.0 | 7.0 | 0.00 | 0.00 | 0.00 | 83 | 1014.5 |
| 20260906075016 | 74 | 110 | 3.0 | 7.0 | 0.00 | 0.00 | 0.00 | 83 | 1014.5 |
| 20260906074530 | 74 | 86 | 2.0 | 7.0 | 0.00 | 0.00 | 0.00 | 83 | 1014.5 |
| 20260906074519 | 74 | 110 | 1.0 | 7.0 | 0.00 | 0.00 | 0.00 | 83 | 1010.1 |
| 20260906074003 | 74 | 75 | 3.0 | 5.0 | 0.00 | 0.00 | 0.00 | 82 | 1014.4 |
| 20260906073503 | 74 | 103 | 2.0 | 4.0 | 0.00 | 0.00 | 0.00 | 82 | 1014.5 |
| 20260906073018 | 74 | 77 | 2.0 | 5.0 | 0.00 | 0.00 | 0.00 | 82 | 1010.0 |
| 20260906073010 | 74 | 110 | 2.0 | 5.0 | 0.00 | 0.00 | 0.00 | 82 | 1014.4 |
| 20260906072504 | 75 | 117 | 2.0 | 5.0 | 0.00 | 0.00 | 0.00 | 82 | 1014.4 |
| 20260906072008 | 75 | 103 | 2.0 | 5.0 | 0.00 | 0.00 | 0.00 | 81 | 1014.5 |
| 20260906071517 | 75 | 124 | 2.0 | 5.0 | 0.00 | 0.00 | 0.00 | 81 | 1014.4 |
| 20260906071515 | 75 | 103 | 2.0 | 5.0 | 0.00 | 0.00 | 0.00 | 82 | 1010.1 |
| 20260906071010 | 75 | 96 | 3.0 | 5.0 | 0.00 | 0.00 | 0.00 | 81 | 1014.4 |
| 20260906070510 | 75 | 98 | 2.0 | 3.0 | 0.00 | 0.00 | 0.00 | 81 | 1014.4 |
| 20260906070026 | 75 | 125 | 0.0 | 3.0 | 0.00 | 0.00 | 0.00 | 81 | 1014.4 |
| 20260906070014 | 75 | 143 | 0.0 | 2.0 | 0.00 | 0.00 | 0.00 | 81 | 1010.1 |
| 20260906065511 | 75 | 138 | 1.0 | 5.0 | 0.00 | 0.00 | 0.00 | 80 | 1014.4 |
| 20260906065014 | 75 | 140 | 2.0 | 5.0 | 0.00 | 0.00 | 0.00 | 80 | 1014.3 |
| 20260906064527 | 75 | 122 | 2.0 | 5.0 | 0.00 | 0.00 | 0.00 | 80 | 1014.3 |
| 20260906064513 | 75 | 124 | 2.0 | 5.0 | 0.00 | 0.00 | 0.00 | 81 | 1010.0 |
| 20260906064019 | 75 | 127 | 1.0 | 4.0 | 0.00 | 0.00 | 0.00 | 80 | 1014.4 |
| 20260906063516 | 75 | 136 | 2.0 | 4.0 | 0.00 | 0.00 | 0.00 | 80 | 1014.4 |
| 20260906063030 | 75 | 178 | 3.0 | 4.0 | 0.00 | 0.00 | 0.00 | 80 | 1014.5 |
| 20260906063011 | 75 | 172 | 2.0 | 4.0 | 0.00 | 0.00 | 0.00 | 80 | 1010.0 |
| 20260906062504 | 75 | 148 | 2.0 | 4.0 | 0.00 | 0.00 | 0.00 | 80 | 1014.5 |
| 20260906062008 | 76 | 175 | 2.0 | 4.0 | 0.00 | 0.00 | 0.00 | 79 | 1014.6 |
| 20260906061513 | 76 | 116 | 1.0 | 4.0 | 0.00 | 0.00 | 0.00 | 79 | 1014.5 |
| 20260906061509 | 76 | 108 | 1.0 | 4.0 | 0.00 | 0.00 | 0.00 | 80 | 1010.1 |
| 20260906061007 | 76 | 131 | 2.0 | 4.0 | 0.00 | 0.00 | 0.00 | 79 | 1014.5 |
| 20260906060510 | 76 | 135 | 2.0 | 7.0 | 0.00 | 0.00 | 0.00 | 79 | 1014.5 |
| 20260906060027 | 76 | 126 | 2.0 | 7.0 | 0.00 | 0.00 | 0.00 | 78 | 1014.4 |
| 20260906060006 | 76 | 126 | 2.0 | 7.0 | 0.00 | 0.00 | 0.00 | 79 | 1009.9 |
| 20260906055509 | 76 | 158 | 3.0 | 7.0 | 0.00 | 0.00 | 0.00 | 78 | 1014.4 |
| 20260906055011 | 77 | 151 | 3.0 | 7.0 | 0.00 | 0.00 | 0.00 | 77 | 1014.5 |
| 20260906054541 | 77 | 176 | 4.0 | 7.0 | 0.00 | 0.00 | 0.00 | 77 | 1014.5 |
| 20260906054504 | 77 | 154 | 3.0 | 7.0 | 0.00 | 0.00 | 0.00 | 78 | 1010.1 |
| 20260906054015 | 77 | 160 | 3.0 | 8.0 | 0.00 | 0.00 | 0.00 | 77 | 1014.5 |
| 20260906053513 | 77 | 155 | 4.0 | 8.0 | 0.00 | 0.00 | 0.00 | 77 | 1014.4 |
| 20260906053027 | 77 | 170 | 5.0 | 9.0 | 0.00 | 0.00 | 0.00 | 77 | 1014.3 |
| 20260906053001 | 77 | 143 | 4.0 | 9.0 | 0.00 | 0.00 | 0.00 | 77 | 1009.9 |
| 20260906052514 | 77 | 130 | 5.0 | 9.0 | 0.00 | 0.00 | 0.00 | 77 | 1014.4 |
| 20260906052016 | 77 | 149 | 3.0 | 6.0 | 0.00 | 0.00 | 0.00 | 77 | 1014.4 |
| 20260906051601 | 77 | 150 | 2.0 | 6.0 | 0.00 | 0.00 | 0.00 | 78 | 1009.9 |
| 20260906051529 | 77 | 157 | 2.0 | 7.0 | 0.00 | 0.00 | 0.00 | 77 | 1014.4 |
| 20260906051007 | 77 | 164 | 3.0 | 7.0 | 0.00 | 0.00 | 0.00 | 77 | 1014.4 |
| 20260906050506 | 77 | 147 | 3.0 | 9.0 | 0.00 | 0.00 | 0.00 | 78 | 1014.6 |
| 20260906050056 | 77 | 197 | 4.0 | 9.0 | 0.00 | 0.00 | 0.00 | 78 | 1010.0 |
| 20260906050014 | 77 | 148 | 4.0 | 9.0 | 0.00 | 0.00 | 0.00 | 78 | 1014.5 |
| 20260906045509 | 77 | 88 | 4.0 | 8.0 | 0.00 | 0.00 | 0.00 | 79 | 1014.3 |
| 20260906045009 | 77 | 141 | 4.0 | 8.0 | 0.00 | 0.00 | 0.00 | 79 | 1014.4 |
| 20260906044554 | 77 | 139 | 2.0 | 8.0 | 0.00 | 0.00 | 0.00 | 79 | 1010.0 |
| 20260906044523 | 77 | 113 | 4.0 | 8.0 | 0.00 | 0.00 | 0.00 | 79 | 1014.6 |
| 20260906044016 | 77 | 159 | 3.0 | 9.0 | 0.00 | 0.00 | 0.00 | 79 | 1014.6 |
| 20260906043510 | 77 | 137 | 4.0 | 9.0 | 0.00 | 0.00 | 0.00 | 79 | 1014.7 |
| 20260906043100 | 77 | 104 | 3.0 | 8.0 | 0.00 | 0.00 | 0.00 | 80 | 1010.3 |
| 20260906043030 | 77 | 110 | 3.0 | 7.0 | 0.00 | 0.00 | 0.00 | 79 | 1014.9 |
| 20260906042511 | 77 | 72 | 4.0 | 7.0 | 0.00 | 0.00 | 0.00 | 80 | 1014.9 |
| 20260906042014 | 76 | 101 | 3.0 | 7.0 | 0.00 | 0.00 | 0.00 | 80 | 1015.0 |
| 20260906041558 | 76 | 94 | 3.0 | 7.0 | 0.00 | 0.00 | 0.00 | 81 | 1010.4 |
| 20260906041531 | 76 | 76 | 2.0 | 7.0 | 0.00 | 0.00 | 0.00 | 80 | 1014.9 |
| 20260906041014 | 76 | 60 | 3.0 | 5.0 | 0.00 | 0.00 | 0.00 | 80 | 1014.9 |
| 20260906040515 | 76 | 63 | 3.0 | 6.0 | 0.00 | 0.00 | 0.00 | 80 | 1014.8 |
| 20260906040058 | 76 | 39 | 4.0 | 8.0 | 0.00 | 0.00 | 0.00 | 79 | 1014.5 |
| 20260906040052 | 76 | 53 | 3.0 | 6.0 | 0.00 | 0.00 | 0.00 | 80 | 1010.0 |
| 20260906035507 | 76 | 68 | 4.0 | 8.0 | 0.00 | 0.00 | 0.00 | 79 | 1014.2 |
| 20260906035008 | 76 | 55 | 5.0 | 8.0 | 0.00 | 0.00 | 0.00 | 78 | 1014.1 |
| 20260906034552 | 77 | 67 | 3.0 | 7.0 | 0.00 | 0.00 | 0.00 | 78 | 1009.7 |
| 20260906034516 | 77 | 63 | 4.0 | 7.0 | 0.00 | 0.00 | 0.00 | 77 | 1014.3 |
| 20260906034009 | 77 | 38 | 3.0 | 7.0 | 0.00 | 0.00 | 0.00 | 76 | 1014.1 |
| 20260906033510 | 77 | 75 | 3.0 | 7.0 | 0.00 | 0.00 | 0.00 | 75 | 1014.2 |
| 20260906033104 | 77 | 96 | 3.0 | 8.0 | 0.00 | 0.00 | 0.00 | 75 | 1009.7 |
| 20260906033038 | 77 | 125 | 3.0 | 8.0 | 0.00 | 0.00 | 0.00 | 75 | 1014.4 |
| 20260906032514 | 77 | 80 | 3.0 | 8.0 | 0.00 | 0.00 | 0.00 | 74 | 1014.2 |
| 20260906032014 | 77 | 104 | 2.0 | 5.0 | 0.00 | 0.00 | 0.00 | 74 | 1014.2 |
| 20260906031550 | 77 | 78 | 1.0 | 5.0 | 0.00 | 0.00 | 0.00 | 75 | 1009.7 |
| 20260906031527 | 77 | 58 | 2.0 | 5.0 | 0.00 | 0.00 | 0.00 | 75 | 1014.3 |
| 20260906031014 | 77 | 75 | 2.0 | 5.0 | 0.00 | 0.00 | 0.00 | 75 | 1014.4 |
| 20260906030516 | 78 | 86 | 3.0 | 4.0 | 0.00 | 0.00 | 0.00 | 74 | 1014.5 |
| 20260906030052 | 78 | 84 | 1.0 | 4.0 | 0.00 | 0.00 | 0.00 | 74 | 1010.0 |
| 20260906030030 | 78 | 73 | 2.0 | 5.0 | 0.00 | 0.00 | 0.00 | 73 | 1014.6 |
| 20260906025518 | 78 | 97 | 2.0 | 5.0 | 0.00 | 0.00 | 0.00 | 72 | 1014.6 |
| 20260906025018 | 78 | 94 | 1.0 | 3.0 | 0.00 | 0.00 | 0.00 | 72 | 1014.7 |
| 20260906024551 | 78 | 101 | 1.0 | 3.0 | 0.00 | 0.00 | 0.00 | 73 | 1010.1 |
| 20260906024513 | 78 | 77 | 1.0 | 3.0 | 0.00 | 0.00 | 0.00 | 72 | 1014.6 |
| 20260906024006 | 78 | 118 | 1.0 | 4.0 | 0.00 | 0.00 | 0.00 | 72 | 1014.6 |
| 20260906023508 | 79 | 143 | 1.0 | 4.0 | 0.00 | 0.00 | 0.00 | 71 | 1014.7 |
| 20260906023054 | 79 | 94 | 0.0 | 3.0 | 0.00 | 0.00 | 0.00 | 71 | 1010.0 |
| 20260906023024 | 79 | 117 | 0.0 | 3.0 | 0.00 | 0.00 | 0.00 | 71 | 1014.6 |
| 20260906022510 | 79 | 110 | 2.0 | 3.0 | 0.00 | 0.00 | 0.00 | 70 | 1014.5 |
| 20260906022010 | 79 | 143 | 0.0 | 2.0 | 0.00 | 0.00 | 0.00 | 70 | 1014.4 |
| 20260906021548 | 79 | 86 | 0.0 | 4.0 | 0.00 | 0.00 | 0.00 | 71 | 1009.7 |
| 20260906021526 | 79 | 83 | 0.0 | 4.0 | 0.00 | 0.00 | 0.00 | 71 | 1014.3 |
| 20260906021014 | 79 | 106 | 1.0 | 4.0 | 0.00 | 0.00 | 0.00 | 71 | 1014.1 |
| 20260906020516 | 80 | 103 | 2.0 | 4.0 | 0.00 | 0.00 | 0.00 | 71 | 1014.1 |
| 20260906020100 | 80 | 94 | 1.0 | 4.0 | 0.00 | 0.00 | 0.00 | 71 | 1009.3 |
| 20260906020033 | 80 | 84 | 1.0 | 4.0 | 0.00 | 0.00 | 0.00 | 70 | 1014.0 |
| 20260906015503 | 80 | 79 | 2.0 | 4.0 | 0.00 | 0.00 | 0.00 | 70 | 1014.0 |
| 20260906015004 | 80 | 122 | 2.0 | 3.0 | 0.00 | 0.00 | 0.00 | 69 | 1014.1 |
| 20260906014547 | 80 | 114 | 0.0 | 2.0 | 0.00 | 0.00 | 0.00 | 69 | 1009.4 |
| 20260906014509 | 81 | 124 | 0.0 | 2.0 | 0.00 | 0.00 | 0.00 | 69 | 1014.1 |
| 20260906014002 | 80 | 129 | 0.0 | 0.0 | 0.00 | 0.00 | 0.00 | 69 | 1014.2 |
| 20260906013506 | 80 | 153 | 0.0 | 0.0 | 0.00 | 0.00 | 0.00 | 69 | 1014.2 |
| 20260906013057 | 80 | 153 | 0.0 | 0.0 | 0.00 | 0.00 | 0.00 | 70 | 1009.6 |
| 20260906013006 | 80 | 153 | 0.0 | 0.0 | 0.00 | 0.00 | 0.00 | 69 | 1014.2 |
| 20260906012502 | 81 | 153 | 0.0 | 0.0 | 0.00 | 0.00 | 0.00 | 68 | 1014.2 |
| 20260906012005 | 81 | 153 | 0.0 | 0.0 | 0.00 | 0.00 | 0.00 | 68 | 1014.2 |
| 20260906011559 | 81 | 153 | 0.0 | 0.0 | 0.00 | 0.00 | 0.00 | 68 | 1009.7 |
| 20260906011514 | 81 | 153 | 0.0 | 0.0 | 0.00 | 0.00 | 0.00 | 67 | 1014.3 |
| 20260906011003 | 81 | 153 | 0.0 | 0.0 | 0.00 | 0.00 | 0.00 | 68 | 1014.4 |
| 20260906010502 | 81 | 153 | 0.0 | 0.0 | 0.00 | 0.00 | 0.00 | 66 | 1014.6 |
| 20260906010046 | 82 | 153 | 0.0 | 0.0 | 0.00 | 0.00 | 0.00 | 66 | 1009.9 |
| 20260906010014 | 82 | 153 | 0.0 | 0.0 | 0.00 | 0.00 | 0.00 | 66 | 1014.5 |
| 20260906005502 | 82 | 153 | 0.0 | 1.0 | 0.00 | 0.00 | 0.00 | 64 | 1014.6 |
| 20260906005003 | 83 | 153 | 0.0 | 2.0 | 0.00 | 0.00 | 0.00 | 64 | 1014.7 |
| 20260906004548 | 83 | 153 | 0.0 | 2.0 | 0.00 | 0.00 | 0.00 | 64 | 1010.0 |
| 20260906004509 | 83 | 153 | 0.0 | 3.0 | 0.00 | 0.00 | 0.00 | 63 | 1014.8 |
| 20260906004002 | 83 | 197 | 0.0 | 3.0 | 0.00 | 0.00 | 0.00 | 63 | 1014.6 |
| 20260906003501 | 83 | 108 | 0.0 | 3.0 | 0.00 | 0.00 | 0.00 | 64 | 1014.3 |
| 20260906003045 | 83 | 141 | 0.0 | 1.0 | 0.00 | 0.00 | 0.00 | 65 | 1009.4 |
| 20260906003010 | 83 | 141 | 0.0 | 2.0 | 0.00 | 0.00 | 0.00 | 64 | 1014.3 |
| 20260906002504 | 83 | 115 | 0.0 | 4.0 | 0.00 | 0.00 | 0.00 | 64 | 1014.2 |
| 20260906002003 | 84 | 167 | 1.0 | 4.0 | 0.00 | 0.00 | 0.00 | 63 | 1014.3 |
| 20260906001546 | 84 | 170 | 1.0 | 4.0 | 0.00 | 0.00 | 0.00 | 63 | 1009.6 |
| 20260906001510 | 84 | 173 | 2.0 | 4.0 | 0.00 | 0.00 | 0.00 | 62 | 1014.3 |
| 20260906001003 | 84 | 183 | 1.0 | 4.0 | 0.00 | 0.00 | 0.00 | 62 | 1014.2 |
| 20260906000502 | 85 | 162 | 1.0 | 5.0 | 0.00 | 0.00 | 0.00 | 61 | 1014.1 |
| 20260906000053 | 85 | 131 | 1.0 | 5.0 | 0.00 | 0.00 | 0.00 | 61 | 1009.3 |
| 20260906000010 | 85 | 131 | 2.0 | 7.0 | 0.00 | 0.00 | 0.00 | 60 | 1014.0 |
| 20260905235503 | 85 | 127 | 2.0 | 7.0 | 0.00 | 0.00 | 0.00 | 59 | 1013.9 |
| 20260905235006 | 86 | 134 | 2.0 | 5.0 | 0.00 | 0.00 | 0.00 | 59 | 1013.9 |
| 20260905234545 | 86 | 149 | 2.0 | 5.0 | 0.00 | 0.00 | 0.00 | 58 | 1009.1 |
| 20260905234510 | 86 | 126 | 3.0 | 8.0 | 0.00 | 0.00 | 0.00 | 58 | 1013.9 |
| 20260905234003 | 86 | 86 | 2.0 | 8.0 | 0.00 | 0.00 | 0.00 | 57 | 1014.0 |
| 20260905233504 | 87 | 113 | 3.0 | 7.0 | 0.00 | 0.00 | 0.00 | 56 | 1013.9 |
| 20260905233043 | 87 | 121 | 2.0 | 6.0 | 0.00 | 0.00 | 0.00 | 57 | 1009.1 |
| 20260905233009 | 87 | 124 | 3.0 | 7.0 | 0.00 | 0.00 | 0.00 | 56 | 1013.9 |
| 20260905232506 | 88 | 139 | 2.0 | 10.0 | 0.00 | 0.00 | 0.00 | 55 | 1013.9 |
| 20260905232003 | 89 | 127 | 3.0 | 10.0 | 0.00 | 0.00 | 0.00 | 53 | 1013.8 |
| 20260905231542 | 89 | 150 | 5.0 | 10.0 | 0.00 | 0.00 | 0.00 | 52 | 1008.6 |
| 20260905231517 | 89 | 110 | 5.0 | 9.0 | 0.00 | 0.00 | 0.00 | 51 | 1013.5 |
| 20260905231005 | 90 | 141 | 4.0 | 11.0 | 0.00 | 0.00 | 0.00 | 50 | 1013.3 |
| 20260905230506 | 90 | 136 | 4.0 | 11.0 | 0.00 | 0.00 | 0.00 | 50 | 1013.1 |
| 20260905230041 | 90 | 203 | 5.0 | 11.0 | 0.00 | 0.00 | 0.00 | 50 | 1008.0 |
| 20260905230013 | 90 | 59 | 7.0 | 11.0 | 0.00 | 0.00 | 0.00 | 49 | 1012.9 |
| 20260905225505 | 90 | 138 | 4.0 | 11.0 | 0.00 | 0.00 | 0.00 | 49 | 1012.7 |
| 20260905225009 | 90 | 131 | 4.0 | 12.0 | 0.00 | 0.00 | 0.00 | 51 | 1012.6 |
| 20260905224548 | 90 | 136 | 6.0 | 14.0 | 0.00 | 0.00 | 0.00 | 50 | 1007.8 |
| 20260905224527 | 90 | 136 | 7.0 | 14.0 | 0.00 | 0.00 | 0.00 | 50 | 1012.6 |
| 20260905224006 | 90 | 8 | 7.0 | 14.0 | 0.00 | 0.00 | 0.00 | 50 | 1012.7 |
| 20260905223505 | 90 | 99 | 6.0 | 12.0 | 0.00 | 0.00 | 0.00 | 51 | 1012.8 |
| 20260905223039 | 90 | 151 | 4.0 | 10.0 | 0.00 | 0.00 | 0.00 | 52 | 1008.0 |
| 20260905223020 | 90 | 95 | 5.0 | 10.0 | 0.00 | 0.00 | 0.00 | 51 | 1012.8 |
| 20260905222503 | 90 | 117 | 5.0 | 11.0 | 0.00 | 0.00 | 0.00 | 51 | 1012.9 |
| 20260905222008 | 90 | 129 | 5.0 | 12.0 | 0.00 | 0.00 | 0.00 | 51 | 1012.9 |
| 20260905221538 | 90 | 85 | 6.0 | 12.0 | 0.00 | 0.00 | 0.00 | 50 | 1008.2 |
| 20260905221532 | 90 | 110 | 6.0 | 12.0 | 0.00 | 0.00 | 0.00 | 49 | 1012.9 |
| 20260905221017 | 90 | 56 | 5.0 | 15.0 | 0.00 | 0.00 | 0.00 | 51 | 1013.0 |
| 20260905220519 | 90 | 135 | 6.0 | 15.0 | 0.00 | 0.00 | 0.00 | 50 | 1013.0 |
| 20260905220037 | 90 | 113 | 7.0 | 13.0 | 0.00 | 0.00 | 0.00 | 51 | 1008.2 |
| 20260905220035 | 90 | 101 | 7.0 | 13.0 | 0.00 | 0.00 | 0.00 | 50 | 1013.0 |
| 20260905215519 | 90 | 136 | 4.0 | 13.0 | 0.00 | 0.00 | 0.00 | 53 | 1013.0 |
| 20260905215023 | 90 | 68 | 4.0 | 14.0 | 0.00 | 0.00 | 0.00 | 52 | 1013.1 |
| 20260905214536 | 90 | 53 | 6.0 | 14.0 | 0.00 | 0.00 | 0.00 | 52 | 1008.3 |
| 20260905214523 | 90 | 59 | 7.0 | 14.0 | 0.00 | 0.00 | 0.00 | 51 | 1013.1 |
| 20260905214010 | 91 | 140 | 5.0 | 10.0 | 0.00 | 0.00 | 0.00 | 47 | 1013.1 |
| 20260905213514 | 91 | 114 | 5.0 | 9.0 | 0.00 | 0.00 | 0.00 | 45 | 1013.3 |
| 20260905213037 | 91 | 109 | 4.0 | 10.0 | 0.00 | 0.00 | 0.00 | 46 | 1008.3 |
| 20260905213029 | 91 | 63 | 5.0 | 10.0 | 0.00 | 0.00 | 0.00 | 45 | 1013.2 |
| 20260905212519 | 91 | 108 | 4.0 | 12.0 | 0.00 | 0.00 | 0.00 | 46 | 1013.0 |
| 20260905212012 | 90 | 134 | 4.0 | 12.0 | 0.00 | 0.00 | 0.00 | 46 | 1013.1 |
| 20260905211542 | 90 | 129 | 5.0 | 12.0 | 0.00 | 0.00 | 0.00 | 46 | 1013.2 |
| 20260905211014 | 90 | 106 | 6.0 | 12.0 | 0.00 | 0.00 | 0.00 | 46 | 1013.2 |
| 20260905210520 | 90 | 120 | 8.0 | 12.0 | 0.00 | 0.00 | 0.00 | 46 | 1013.3 |
| 20260905210041 | 90 | 49 | 6.0 | 13.0 | 0.00 | 0.00 | 0.00 | 47 | 1013.3 |
| 20260905210032 | 90 | 107 | 6.0 | 11.0 | 0.00 | 0.00 | 0.00 | 47 | 1008.5 |
| 20260905205519 | 90 | 77 | 6.0 | 13.0 | 0.00 | 0.00 | 0.00 | 47 | 1013.2 |
| 20260905205019 | 90 | 107 | 5.0 | 12.0 | 0.00 | 0.00 | 0.00 | 49 | 1013.2 |
| 20260905204536 | 90 | 81 | 4.0 | 16.0 | 0.00 | 0.00 | 0.00 | 50 | 1008.6 |
| 20260905204531 | 90 | 56 | 5.0 | 16.0 | 0.00 | 0.00 | 0.00 | 49 | 1013.3 |
| 20260905204016 | 90 | 109 | 7.0 | 16.0 | 0.00 | 0.00 | 0.00 | 47 | 1013.3 |
| 20260905203517 | 90 | 120 | 5.0 | 13.0 | 0.00 | 0.00 | 0.00 | 47 | 1013.2 |
| 20260905203027 | 90 | 122 | 7.0 | 13.0 | 0.00 | 0.00 | 0.00 | 48 | 1013.3 |
| 20260905202515 | 90 | 76 | 7.0 | 11.0 | 0.00 | 0.00 | 0.00 | 47 | 1013.2 |
| 20260905202013 | 90 | 75 | 4.0 | 13.0 | 0.00 | 0.00 | 0.00 | 49 | 1013.3 |
| 20260905201530 | 90 | 75 | 7.0 | 13.0 | 0.00 | 0.00 | 0.00 | 48 | 1013.3 |
| 20260905201524 | 90 | 64 | 6.0 | 13.0 | 0.00 | 0.00 | 0.00 | 48 | 1008.7 |
| 20260905201015 | 90 | 100 | 7.0 | 15.0 | 0.00 | 0.00 | 0.00 | 48 | 1013.1 |
| 20260905200526 | 90 | 89 | 7.0 | 15.0 | 0.00 | 0.00 | 0.00 | 48 | 1013.2 |
| 20260905200034 | 90 | 82 | 7.0 | 13.0 | 0.00 | 0.00 | 0.00 | 48 | 1013.3 |
| 20260905200029 | 90 | 76 | 7.0 | 12.0 | 0.00 | 0.00 | 0.00 | 47 | 1008.6 |
| 20260905195515 | 90 | 89 | 4.0 | 13.0 | 0.00 | 0.00 | 0.00 | 48 | 1013.2 |
| 20260905195021 | 90 | 52 | 6.0 | 11.0 | 0.00 | 0.00 | 0.00 | 47 | 1013.3 |
| 20260905194530 | 90 | 93 | 6.0 | 11.0 | 0.00 | 0.00 | 0.00 | 46 | 1013.2 |
| 20260905194523 | 90 | 103 | 6.0 | 11.0 | 0.00 | 0.00 | 0.00 | 47 | 1008.5 |
| 20260905194016 | 91 | 84 | 5.0 | 14.0 | 0.00 | 0.00 | 0.00 | 49 | 1013.3 |
| 20260905193517 | 90 | 90 | 6.0 | 14.0 | 0.00 | 0.00 | 0.00 | 48 | 1013.3 |
| 20260905193033 | 91 | 116 | 4.0 | 10.0 | 0.00 | 0.00 | 0.00 | 45 | 1013.4 |
| 20260905193022 | 91 | 96 | 3.0 | 7.0 | 0.00 | 0.00 | 0.00 | 46 | 1008.8 |
| 20260905192519 | 91 | 187 | 3.0 | 11.0 | 0.00 | 0.00 | 0.00 | 48 | 1013.5 |
| 20260905192018 | 91 | 165 | 5.0 | 11.0 | 0.00 | 0.00 | 0.00 | 46 | 1013.4 |
| 20260905191525 | 91 | 65 | 3.0 | 6.0 | 0.00 | 0.00 | 0.00 | 47 | 1008.8 |
| 20260905191516 | 91 | 136 | 3.0 | 7.0 | 0.00 | 0.00 | 0.00 | 46 | 1013.4 |
| 20260905191008 | 91 | 259 | 2.0 | 7.0 | 0.00 | 0.00 | 0.00 | 47 | 1013.3 |
| 20260905190508 | 91 | 189 | 5.0 | 7.0 | 0.00 | 0.00 | 0.00 | 46 | 1013.4 |
| 20260905190019 | 91 | 184 | 1.0 | 3.0 | 0.00 | 0.00 | 0.00 | 50 | 1009.0 |
| 20260905190009 | 91 | 194 | 1.0 | 3.0 | 0.00 | 0.00 | 0.00 | 47 | 1013.5 |
| 20260905185503 | 90 | 191 | 1.0 | 8.0 | 0.00 | 0.00 | 0.00 | 48 | 1013.5 |
| 20260905185005 | 89 | 146 | 2.0 | 9.0 | 0.00 | 0.00 | 0.00 | 47 | 1013.6 |
| 20260905184540 | 90 | 173 | 3.0 | 9.0 | 0.00 | 0.00 | 0.00 | 48 | 1009.0 |
| 20260905184524 | 90 | 212 | 3.0 | 9.0 | 0.00 | 0.00 | 0.00 | 47 | 1013.5 |
| 20260905184007 | 90 | 115 | 5.0 | 9.0 | 0.00 | 0.00 | 0.00 | 48 | 1013.5 |
| 20260905183508 | 89 | 131 | 3.0 | 9.0 | 0.00 | 0.00 | 0.00 | 49 | 1013.6 |
| 20260905183035 | 89 | 189 | 4.0 | 9.0 | 0.00 | 0.00 | 0.00 | 48 | 1009.0 |
| 20260905183016 | 89 | 189 | 5.0 | 9.0 | 0.00 | 0.00 | 0.00 | 47 | 1013.7 |
| 20260905182508 | 89 | 149 | 4.0 | 12.0 | 0.00 | 0.00 | 0.00 | 48 | 1013.7 |
| 20260905182009 | 89 | 128 | 5.0 | 12.0 | 0.00 | 0.00 | 0.00 | 49 | 1013.7 |
| 20260905181518 | 89 | 140 | 4.0 | 9.0 | 0.00 | 0.00 | 0.00 | 48 | 1013.7 |
| 20260905181514 | 89 | 148 | 4.0 | 9.0 | 0.00 | 0.00 | 0.00 | 49 | 1009.2 |
| 20260905181011 | 88 | 141 | 6.0 | 11.0 | 0.00 | 0.00 | 0.00 | 48 | 1013.7 |
| 20260905180510 | 88 | 150 | 7.0 | 11.0 | 0.00 | 0.00 | 0.00 | 48 | 1013.6 |
| 20260905180018 | 88 | 207 | 5.0 | 10.0 | 0.00 | 0.00 | 0.00 | 49 | 1013.6 |
| 20260905180011 | 88 | 174 | 5.0 | 10.0 | 0.00 | 0.00 | 0.00 | 49 | 1009.1 |
| 20260905175509 | 88 | 153 | 5.0 | 10.0 | 0.00 | 0.00 | 0.00 | 50 | 1013.7 |
| 20260905175010 | 88 | 245 | 5.0 | 9.0 | 0.00 | 0.00 | 0.00 | 49 | 1013.8 |
| 20260905174510 | 87 | 191 | 5.0 | 10.0 | 0.00 | 0.00 | 0.00 | 49 | 1009.4 |
| 20260905174005 | 87 | 216 | 5.0 | 10.0 | 0.00 | 0.00 | 0.00 | 48 | 1013.9 |
| 20260905173506 | 87 | 205 | 5.0 | 9.0 | 0.00 | 0.00 | 0.00 | 50 | 1013.9 |
| 20260905173012 | 87 | 198 | 5.0 | 10.0 | 0.00 | 0.00 | 0.00 | 51 | 1014.1 |
| 20260905173009 | 87 | 190 | 4.0 | 10.0 | 0.00 | 0.00 | 0.00 | 51 | 1009.6 |
| 20260905172506 | 87 | 198 | 5.0 | 11.0 | 0.00 | 0.00 | 0.00 | 49 | 1014.2 |
| 20260905172011 | 87 | 174 | 6.0 | 12.0 | 0.00 | 0.00 | 0.00 | 49 | 1014.2 |
| 20260905171517 | 87 | 219 | 5.0 | 12.0 | 0.00 | 0.00 | 0.00 | 50 | 1014.2 |
| 20260905171508 | 87 | 221 | 5.0 | 12.0 | 0.00 | 0.00 | 0.00 | 50 | 1009.8 |
| 20260905171007 | 86 | 198 | 6.0 | 16.0 | 0.00 | 0.00 | 0.00 | 49 | 1014.3 |
| 20260905170510 | 86 | 165 | 9.0 | 16.0 | 0.00 | 0.00 | 0.00 | 48 | 1014.3 |
| 20260905170020 | 86 | 158 | 10.0 | 14.0 | 0.00 | 0.00 | 0.00 | 48 | 1014.4 |
| 20260905170004 | 86 | 186 | 10.0 | 14.0 | 0.00 | 0.00 | 0.00 | 49 | 1009.9 |
| 20260905165508 | 86 | 155 | 6.0 | 11.0 | 0.00 | 0.00 | 0.00 | 50 | 1014.4 |
| 20260905165007 | 86 | 129 | 5.0 | 13.0 | 0.00 | 0.00 | 0.00 | 52 | 1014.4 |
| 20260905164525 | 86 | 210 | 7.0 | 13.0 | 0.00 | 0.00 | 0.00 | 49 | 1014.5 |
| 20260905164502 | 86 | 210 | 6.0 | 13.0 | 0.00 | 0.00 | 0.00 | 50 | 1010.1 |
| 20260905164008 | 85 | 154 | 6.0 | 10.0 | 0.00 | 0.00 | 0.00 | 48 | 1014.6 |
| 20260905163510 | 86 | 139 | 6.0 | 10.0 | 0.00 | 0.00 | 0.00 | 49 | 1014.6 |
| 20260905163010 | 85 | 163 | 5.0 | 10.0 | 0.00 | 0.00 | 0.00 | 50 | 1014.6 |
| 20260905163003 | 85 | 163 | 5.0 | 8.0 | 0.00 | 0.00 | 0.00 | 51 | 1010.3 |
| 20260905162506 | 85 | 162 | 4.0 | 10.0 | 0.00 | 0.00 | 0.00 | 51 | 1014.7 |
| 20260905162003 | 85 | 212 | 6.0 | 10.0 | 0.00 | 0.00 | 0.00 | 49 | 1014.8 |
| 20260905161558 | 85 | 148 | 5.0 | 11.0 | 0.00 | 0.00 | 0.00 | 49 | 1010.5 |
| 20260905161523 | 85 | 193 | 5.0 | 11.0 | 0.00 | 0.00 | 0.00 | 50 | 1014.7 |
| 20260905161015 | 84 | 186 | 7.0 | 11.0 | 0.00 | 0.00 | 0.00 | 51 | 1014.8 |
| 20260905160509 | 84 | 144 | 5.0 | 11.0 | 0.00 | 0.00 | 0.00 | 53 | 1014.7 |
| 20260905160055 | 84 | 158 | 7.0 | 11.0 | 0.00 | 0.00 | 0.00 | 52 | 1010.4 |
| 20260905160020 | 84 | 168 | 6.0 | 9.0 | 0.00 | 0.00 | 0.00 | 56 | 1014.7 |
| 20260905155512 | 83 | 176 | 5.0 | 8.0 | 0.00 | 0.00 | 0.00 | 56 | 1014.7 |
| 20260905155008 | 83 | 187 | 5.0 | 9.0 | 0.00 | 0.00 | 0.00 | 56 | 1014.7 |
| 20260905154613 | 83 | 150 | 4.0 | 9.0 | 0.00 | 0.00 | 0.00 | 58 | 1010.4 |
| 20260905154524 | 83 | 158 | 5.0 | 9.0 | 0.00 | 0.00 | 0.00 | 57 | 1014.7 |
| 20260905154010 | 83 | 129 | 4.0 | 7.0 | 0.00 | 0.00 | 0.00 | 61 | 1014.7 |
| 20260905153510 | 82 | 68 | 4.0 | 7.0 | 0.00 | 0.00 | 0.00 | 63 | 1014.7 |
| 20260905153049 | 82 | 76 | 3.0 | 7.0 | 0.00 | 0.00 | 0.00 | 65 | 1010.3 |
| 20260905153023 | 82 | 94 | 3.0 | 7.0 | 0.00 | 0.00 | 0.00 | 66 | 1014.6 |
| 20260905152511 | 81 | 109 | 3.0 | 7.0 | 0.00 | 0.00 | 0.00 | 71 | 1014.6 |
| 20260905152013 | 81 | 124 | 4.0 | 9.0 | 0.00 | 0.00 | 0.00 | 71 | 1014.5 |
| 20260905151545 | 80 | 56 | 4.0 | 9.0 | 0.00 | 0.00 | 0.00 | 75 | 1010.3 |
| 20260905151525 | 80 | 51 | 5.0 | 9.0 | 0.00 | 0.00 | 0.00 | 74 | 1014.6 |
| 20260905151013 | 79 | 1 | 4.0 | 9.0 | 0.00 | 0.00 | 0.00 | 77 | 1014.5 |
| 20260905150514 | 79 | 65 | 6.0 | 9.0 | 0.00 | 0.00 | 0.00 | 77 | 1014.4 |
| 20260905150041 | 79 | 51 | 4.0 | 7.0 | 0.00 | 0.00 | 0.00 | 78 | 1010.3 |
| 20260905150025 | 79 | 73 | 4.0 | 7.0 | 0.00 | 0.00 | 0.00 | 78 | 1014.4 |
| 20260905145508 | 78 | 60 | 4.0 | 9.0 | 0.00 | 0.00 | 0.00 | 80 | 1014.3 |
| 20260905145008 | 78 | 55 | 3.0 | 9.0 | 0.00 | 0.00 | 0.00 | 81 | 1014.4 |
| 20260905144541 | 78 | 75 | 4.0 | 11.0 | 0.00 | 0.00 | 0.00 | 82 | 1010.4 |
| 20260905144525 | 78 | 50 | 4.0 | 11.0 | 0.00 | 0.00 | 0.00 | 81 | 1014.4 |
| 20260905144010 | 78 | 57 | 7.0 | 11.0 | 0.00 | 0.00 | 0.00 | 81 | 1014.5 |
| 20260905143511 | 77 | 56 | 2.0 | 10.0 | 0.00 | 0.00 | 0.00 | 82 | 1014.4 |
| 20260905143038 | 77 | 56 | 5.0 | 10.0 | 0.00 | 0.00 | 0.00 | 83 | 1010.4 |
| 20260905143027 | 77 | 53 | 5.0 | 10.0 | 0.00 | 0.00 | 0.00 | 82 | 1014.4 |
| 20260905142512 | 77 | 54 | 6.0 | 10.0 | 0.00 | 0.00 | 0.00 | 82 | 1014.5 |
| 20260905142010 | 77 | 103 | 4.0 | 7.0 | 0.00 | 0.00 | 0.00 | 81 | 1014.6 |
| 20260905141536 | 77 | 63 | 2.0 | 4.0 | 0.00 | 0.00 | 0.00 | 83 | 1010.7 |
| 20260905141526 | 77 | 88 | 2.0 | 7.0 | 0.00 | 0.00 | 0.00 | 83 | 1014.6 |
| 20260905141013 | 76 | 83 | 1.0 | 8.0 | 0.00 | 0.00 | 0.00 | 85 | 1014.5 |
| 20260905140513 | 76 | 61 | 5.0 | 8.0 | 0.00 | 0.00 | 0.00 | 85 | 1014.7 |
| 20260905140034 | 75 | 98 | 3.0 | 6.0 | 0.00 | 0.00 | 0.00 | 86 | 1010.7 |
| 20260905140024 | 75 | 59 | 4.0 | 6.0 | 0.00 | 0.00 | 0.00 | 86 | 1014.7 |
| 20260905135511 | 75 | 53 | 4.0 | 7.0 | 0.00 | 0.00 | 0.00 | 86 | 1014.6 |
| 20260905135014 | 75 | 20 | 3.0 | 7.0 | 0.00 | 0.00 | 0.00 | 85 | 1014.6 |
| 20260905134533 | 75 | 60 | 3.0 | 6.0 | 0.00 | 0.00 | 0.00 | 85 | 1010.6 |
| 20260905134527 | 75 | 44 | 4.0 | 6.0 | 0.00 | 0.00 | 0.00 | 84 | 1014.6 |
| 20260905134013 | 75 | 88 | 0.0 | 6.0 | 0.00 | 0.00 | 0.00 | 85 | 1014.5 |
| 20260905133513 | 74 | 61 | 4.0 | 6.0 | 0.00 | 0.00 | 0.00 | 86 | 1014.6 |
| 20260905133042 | 74 | 59 | 3.0 | 5.0 | 0.00 | 0.00 | 0.00 | 86 | 1010.5 |
| 20260905133034 | 74 | 68 | 3.0 | 5.0 | 0.00 | 0.00 | 0.00 | 86 | 1014.6 |
| 20260905132514 | 74 | 58 | 1.0 | 5.0 | 0.00 | 0.00 | 0.00 | 86 | 1014.4 |
| 20260905132012 | 74 | 32 | 3.0 | 8.0 | 0.00 | 0.00 | 0.00 | 86 | 1014.3 |
| 20260905131535 | 74 | 330 | 3.0 | 8.0 | 0.00 | 0.00 | 0.00 | 87 | 1010.3 |
| 20260905131528 | 74 | 338 | 3.0 | 8.0 | 0.00 | 0.00 | 0.00 | 86 | 1014.1 |
| 20260905131013 | 74 | 293 | 1.0 | 5.0 | 0.00 | 0.00 | 0.00 | 86 | 1013.8 |
| 20260905130515 | 74 | 114 | 1.0 | 7.0 | 0.00 | 0.00 | 0.00 | 87 | 1013.6 |
| 20260905130032 | 74 | 324 | 4.0 | 7.0 | 0.00 | 0.00 | 0.00 | 88 | 1009.7 |
| 20260905130029 | 74 | 326 | 4.0 | 7.0 | 0.00 | 0.00 | 0.00 | 87 | 1013.7 |
| 20260905125514 | 74 | 326 | 4.0 | 7.0 | 0.00 | 0.00 | 0.00 | 87 | 1013.6 |
| 20260905125012 | 74 | 319 | 2.0 | 14.0 | 0.00 | 0.00 | 0.00 | 87 | 1013.1 |
| 20260905124534 | 74 | 260 | 4.0 | 14.0 | 0.00 | 0.00 | 0.00 | 88 | 1008.7 |
| 20260905124516 | 74 | 244 | 5.0 | 14.0 | 0.00 | 0.00 | 0.00 | 87 | 1012.7 |
| 20260905124007 | 74 | 235 | 6.0 | 13.0 | 0.00 | 0.00 | 0.00 | 88 | 1012.4 |
| 20260905123508 | 74 | 224 | 8.0 | 16.0 | 0.00 | 0.00 | 0.00 | 87 | 1012.1 |
| 20260905123029 | 74 | 231 | 8.0 | 16.0 | 0.00 | 0.00 | 0.00 | 88 | 1008.1 |
| 20260905123024 | 74 | 217 | 8.0 | 16.0 | 0.00 | 0.00 | 0.00 | 87 | 1011.9 |
| 20260905122510 | 74 | 233 | 9.0 | 22.0 | 0.00 | 0.00 | 0.00 | 88 | 1012.1 |
| 20260905122012 | 74 | 212 | 7.0 | 22.0 | 0.00 | 0.00 | 0.00 | 88 | 1012.2 |
| 20260905121529 | 74 | 198 | 12.0 | 22.0 | 0.00 | 0.00 | 0.00 | 88 | 1008.0 |
| 20260905121013 | 74 | 142 | 11.0 | 18.0 | 0.00 | 0.00 | 0.00 | 88 | 1011.9 |
| 20260905120518 | 74 | 191 | 10.0 | 15.0 | 0.00 | 0.00 | 0.00 | 89 | 1012.2 |
| 20260905120029 | 74 | 214 | 8.0 | 14.0 | 0.00 | 0.00 | 0.00 | 90 | 1012.4 |
| 20260905120026 | 74 | 180 | 7.0 | 14.0 | 0.00 | 0.00 | 0.00 | 90 | 1008.6 |
| 20260905115519 | 74 | 171 | 7.0 | 13.0 | 0.00 | 0.00 | 0.00 | 90 | 1012.7 |
| 20260905115020 | 74 | 162 | 8.0 | 13.0 | 0.00 | 0.00 | 0.00 | 90 | 1012.9 |
| 20260905114529 | 74 | 181 | 7.0 | 12.0 | 0.00 | 0.00 | 0.00 | 90 | 1013.0 |
| 20260905114525 | 74 | 160 | 7.0 | 12.0 | 0.00 | 0.00 | 0.00 | 90 | 1009.0 |
| 20260905114015 | 73 | 169 | 6.0 | 10.0 | 0.00 | 0.00 | 0.00 | 90 | 1013.1 |
| 20260905113519 | 73 | 193 | 5.0 | 13.0 | 0.00 | 0.00 | 0.00 | 89 | 1013.1 |
| 20260905113024 | 73 | 173 | 5.0 | 15.0 | 0.00 | 0.00 | 0.00 | 89 | 1009.2 |
| 20260905113014 | 73 | 209 | 5.0 | 15.0 | 0.00 | 0.00 | 0.00 | 89 | 1013.2 |
| 20260905112510 | 73 | 191 | 6.0 | 15.0 | 0.00 | 0.00 | 0.00 | 89 | 1013.4 |
| 20260905112010 | 73 | 153 | 8.0 | 13.0 | 0.00 | 0.00 | 0.00 | 88 | 1013.7 |
| 20260905111530 | 73 | 175 | 8.0 | 11.0 | 0.00 | 0.00 | 0.00 | 88 | 1010.0 |
| 20260905111523 | 73 | 146 | 9.0 | 11.0 | 0.00 | 0.00 | 0.00 | 88 | 1013.9 |
| 20260905111012 | 73 | 137 | 8.0 | 10.0 | 0.00 | 0.00 | 0.00 | 88 | 1014.1 |
| 20260905110514 | 73 | 163 | 3.0 | 6.0 | 0.00 | 0.00 | 0.00 | 87 | 1014.2 |
| 20260905110034 | 74 | 194 | 2.0 | 3.0 | 0.00 | 0.00 | 0.00 | 88 | 1010.5 |
| 20260905110029 | 74 | 203 | 2.0 | 3.0 | 0.00 | 0.00 | 0.00 | 87 | 1014.3 |
| 20260905105517 | 73 | 110 | 1.0 | 3.0 | 0.00 | 0.00 | 0.00 | 87 | 1014.5 |